sat.trackr.live / text

‹ back to catalog

STARLINK-4420

NORAD 53654 · 2022-105G

PAYLOAD ACTIVE UNKNOWN

§ Identity

Operator
Country
US
Launch date
2022-08-31
Launch site
AFWTR
Launch vehicle
Mass (kg)
RCS (m²)

Purposes: comms

External: N2YO · Heavens-Above · Gunter

§ Orbital elements

Epoch: 2026-05-25T02:23:01.116672Z

Period
95.64 min
Inclination
97.4516°
Eccentricity
0.0001426
Mean motion
15.05670229 rev/d
Perigee alt
548.5 km
Apogee alt
550.4 km
Semi-major
6,927.6 km
B*
-1.9621e-4
RAAN
26.1173°
Arg perigee
54.1151°
Mean anomaly
306.0208°
Rev number
20,479

§ Raw data

STARLINK-44201 53654U 22105G   26145.09931848 -.00002890  00000+0 -19621-3 0  99952 53654  97.4516  26.1173 0001426  54.1151 306.0208 15.05670229204795

JSON: /api/v1/satellites/53654 · /tle

For live sub-satellite position, see the globe view (requires WebGL).

§ Visibility from observer

Set your observer location to see the next 7 days of passes ≥ 10°. The values pass through the URL so the page stays shareable.

No JS? Fill the form by hand. The geolocation button needs JavaScript.